GFSNE_prec_cloud_273.txt.gz
Cloud_Cover
34 75 62 14 33 41 89 19 7 5 44 100 85 31 46 64 70 74 78 87 44 99 13 86 5 6 5 5 5 8 26 98 100 100 100 98 100 100
4 5 52 14 15 34 67 47 50 12 11 100 94 56 6 5 38 23 68 61 5 29 94 31 5 5 5 5 7 8 5 5 76 98 100 100 100 100
5 2 1 5 3 24 100 100 71 68 14 100 100 100 100 96 32 14 4 37 89 44 55 82 97 96 5 69 100 7 7 5 0 7 73 100 100 100
4 10 3 0 5 4 43 100 100 100 92 60 37 91 100 100 100 93 26 14 29 99 92 43 17 50 12 9 5 5 5 5 5 3 5 80 100 100
83 17 5 4 0 2 0 0 4 37 96 100 100 97 50 46 21 95 53 11 71 93 99 100 100 100 74 16 36 35 53 56 34 34 24 38 100 100
30 5 4 0 0 0 0 0 1 3 0 0 3 44 44 31 93 98 99 26 5 16 42 100 100 100 100 100 89 95 94 58 84 99 100 98 84 100
5 3 1 0 0 0 5 4 1 1 1 10 1 0 1 0 25 82 29 1 8 56 100 100 100 100 100 90 100 100 100 100 100 100 100 100 100 100
35 3 18 5 0 0 0 0 0 0 0 7 8 25 0 0 0 0 2 0 0 2 79 100 100 100 91 100 100 100 99 100 100 100 100 100 100 100
8 6 5 1 0 0 0 0 0 27 83 0 1 8 2 0 0 1 38 5 4 1 1 8 95 100 100 100 100 100 100 26 14 76 27 5 4 29
26 48 9 2 0 30 5 5 0 0 0 0 2 20 0 0 4 17 100 100 100 70 6 4 18 4 44 44 20 7 5 5 3 3 5 5 5 4
7 78 58 92 98 19 0 0 0 0 0 28 42 14 1 60 96 100 100 100 93 94 75 24 90 2 12 35 1 0 0 1 19 70 100 68 5 0
99 100 100 92 5 0 0 0 0 0 0 0 0 0 56 100 100 100 100 100 100 100 95 75 11 58 9 0 0 0 0 0 0 0 0 0 0 0
99 100 45 0 0 0 0 0 0 0 0 0 5 6 47 100 100 100 100 100 100 100 100 58 5 14 48 0 0 0 0 0 0 0 0 0 0 0
1 1 0 0 0 0 0 0 0 0 0 4 9 7 96 100 100 100 100 100 100 100 100 8 23 5 4 4 3 5 5 3 0 0 0 3 5 2
0 0 0 0 0 0 0 0 0 0 0 0 70 18 70 100 100 100 100 100 100 98 8 28 41 6 5 4 0 1 5 5 2 0 0 5 5 5
2 0 0 0 0 0 0 0 0 0 0 11 36 21 63 95 100 100 100 87 41 90 100 95 35 20 5 5 3 5 5 5 5 5 0 0 0 0
0 1 0 0 0 0 0 0 10 12 0 3 62 32 56 96 100 97 100 100 100 64 96 45 95 80 5 0 4 5 5 5 5 5 5 4 4 0
0 0 0 0 0 3 1 1 2 77 56 98 99 81 40 78 100 100 100 100 40 23 96 100 100 100 3 0 0 0 2 4 50 5 7 5 5 5
4 0 0 0 0 0 0 5 5 5 5 5 5 6 5 5 7 43 100 38 5 93 100 100 100 100 66 3 1 3 6 5 5 42 73 66 5 5
5 5 4 1 0 0 0 0 5 10 5 5 5 32 100 100 89 20 71 78 100 100 100 84 100 100 100 100 100 100 75 53 61 54 41 80 100 20
100 74 58 87 5 5 6 66 100 86 13 5 5 11 50 77 88 92 63 5 56 89 100 96 6 73 90 100 100 100 88 100 100 100 100 100 100 100
40 100 100 100 99 100 82 42 85 84 84 70 59 74 6 7 22 43 59 86 79 84 17 16 83 100 98 100 100 100 89 49 85 100 100 100 100 100
100 100 100 100 99 100 100 85 82 86 100 100 100 100 98 100 97 82 100 100 45 94 100 100 100 100 100 100 100 100 100 95 100 100 100 100 100 99

GFSNE_prec_cloud_276.txt.gz
Cloud_Cover
5 2 0 1 0 2 0 1 5 4 5 47 15 57 58 17 6 12 95 100 100 31 15 48 100 70 5 5 5 5 29 95 100 100 100 100 30 100
0 0 0 4 4 5 5 29 80 75 25 10 90 7 1 3 23 99 94 100 100 100 92 100 56 12 8 17 5 23 52 37 37 30 15 17 61 100
0 3 5 9 5 5 6 5 5 1 4 100 100 95 26 5 5 9 99 100 100 100 100 100 100 100 99 100 56 6 5 60 100 100 5 3 4 14
0 0 0 5 3 5 5 1 2 0 0 3 100 100 100 95 98 98 43 5 24 100 100 100 100 100 100 89 72 32 8 31 90 40 5 5 4 5
1 5 5 5 5 5 5 20 5 2 0 0 3 2 2 4 4 100 100 99 99 71 19 5 6 16 73 86 100 100 100 100 98 94 41 22 12 87
5 29 5 5 5 36 24 12 9 4 0 0 5 3 0 0 70 100 100 27 100 87 4 4 64 11 11 2 100 100 100 100 100 100 100 100 100 70
6 16 18 94 91 6 5 6 4 0 1 0 1 1 0 0 1 60 98 100 50 2 0 10 29 55 63 79 96 100 100 100 100 100 100 100 100 100
53 100 66 98 67 9 19 60 5 6 5 1 21 43 0 0 0 0 43 61 32 0 0 0 52 79 16 99 97 100 100 100 100 100 100 100 100 100
5 5 23 5 5 81 10 5 5 0 0 4 0 4 0 0 0 0 0 0 0 0 0 26 13 98 100 24 100 100 100 100 100 100 100 100 100 98
1 5 6 60 5 5 0 4 15 4 2 0 0 13 34 0 0 0 0 0 1 4 3 33 100 86 14 7 98 55 99 100 100 100 100 100 100 100
1 0 3 29 0 0 0 0 3 1 1 0 0 0 0 0 0 0 0 3 77 86 100 100 100 100 100 100 86 6 5 5 56 100 100 100 21 5
0 0 0 0 5 4 2 0 0 0 0 0 0 0 0 0 0 2 2 93 100 100 100 100 100 100 100 100 100 86 5 2 4 2 5 0 0 0
0 4 0 1 3 2 0 0 0 0 0 0 0 0 0 0 5 86 44 81 100 100 100 100 100 100 100 100 100 100 51 5 0 1 0 0 0 0
0 0 0 0 0 0 0 0 0 0 0 0 0 0 0 0 4 59 49 91 100 100 100 100 100 100 100 100 79 12 5 5 4 2 3 4 0 0
0 0 0 0 0 0 0 0 0 0 0 0 0 0 0 0 5 5 6 58 98 99 100 100 100 100 100 100 100 67 5 5 5 5 0 5 5 8
5 3 0 0 0 0 0 0 0 0 0 0 0 0 0 0 0 5 43 5 97 100 100 100 100 100 100 100 31 6 38 74 47 6 5 0 8 5
16 5 0 0 4 5 3 0 0 0 0 0 0 1 16 5 4 2 5 75 61 74 100 100 100 99 54 10 14 32 39 16 3 2 5 5 5 5
81 5 5 0 5 5 2 0 0 0 0 0 0 0 0 5 5 28 36 15 70 54 23 32 66 18 33 95 42 69 92 100 75 3 4 5 5 5
6 5 5 63 6 5 0 5 0 0 0 0 0 0 0 5 11 6 5 16 5 5 5 6 54 6 14 54 100 100 100 100 38 5 0 1 5 2
87 71 90 9 21 28 5 4 5 5 5 0 1 6 3 3 5 5 6 22 86 100 75 38 92 13 40 100 83 97 71 100 100 92 17 6 6 6
83 33 99 100 100 100 100 93 39 5 5 66 57 96 100 40 5 5 5 5 17 62 86 34 32 60 100 92 99 34 9 92 100 100 100 100 100 100
100 100 100 100 100 100 100 100 100 98 96 86 93 90 100 100 100 49 32 98 47 16 5 13 56 71 76 56 90 61 5 8 69 100 100 100 100 100
94 100 86 100 100 86 100 100 100 97 100 100 100 100 94 100 100 100 100 100 100 94 77 5 75 41 5 73 38 76 100 74 8 26 100 100 72 99

GFSNE_prec_cloud_279.txt.gz
Cloud_Cover
5 53 52 38 41 7 40 6 3 0 0 1 0 0 1 5 5 5 7 13 78 8 13 6 53 68 5 34 28 100 100 8 2 4 34 100 100 100
5 5 5 7 5 5 1 5 5 5 0 0 1 0 1 5 31 93 82 74 48 6 16 100 100 90 46 53 92 80 71 19 12 5 5 28 100 97
5 5 4 4 0 0 2 1 5 96 92 30 6 5 5 5 3 53 71 76 100 100 100 80 12 100 100 100 100 100 100 44 12 10 5 6 80 100
0 0 0 0 1 2 1 10 3 0 1 5 5 2 2 0 0 0 0 0 10 5 5 48 49 100 74 100 36 7 99 100 18 6 8 98 44 100
0 0 5 4 5 5 5 51 8 5 5 5 5 5 5 10 5 0 0 0 23 3 0 2 42 71 93 52 32 99 100 100 100 100 79 52 76 53
1 2 4 5 5 5 5 9 59 68 94 5 5 5 7 3 5 5 50 25 39 0 4 79 71 11 26 46 43 89 100 100 100 100 100 100 100 99
2 0 0 1 0 0 0 9 33 5 5 4 7 14 6 1 0 0 2 33 42 63 19 12 20 60 96 93 96 100 100 100 100 100 100 100 100 100
21 2 0 0 0 0 0 0 0 0 0 21 70 34 5 6 0 0 0 0 0 4 0 0 3 16 0 55 100 100 100 100 100 100 100 100 100 100
100 89 97 100 100 35 71 5 0 0 0 5 1 3 0 0 0 0 0 0 0 0 0 2 6 0 0 14 100 100 100 100 100 100 100 69 25 99
82 100 77 100 100 100 100 27 79 19 0 0 6 3 96 2 0 0 0 2 5 5 0 0 1 0 0 4 97 98 100 100 100 100 100 100 100 100
43 84 100 97 100 100 26 24 5 5 1 1 0 0 0 17 0 0 0 0 0 0 0 0 68 85 57 85 100 100 100 99 43 5 10 20 100 100
97 59 100 100 100 26 98 60 61 4 0 0 0 0 0 0 0 0 0 0 0 1 0 5 100 90 79 100 100 100 100 100 96 5 6 5 8 81
100 100 100 100 100 73 100 88 5 0 0 0 0 0 0 0 0 17 86 79 0 4 5 6 95 100 100 100 100 100 100 100 100 100 100 45 15 6
98 94 69 92 93 97 73 98 82 3 0 0 0 0 0 0 4 0 30 49 0 5 24 12 100 100 100 100 100 100 100 100 100 100 100 88 61 100
77 14 24 72 81 90 99 94 93 84 95 1 0 0 0 0 0 0 0 0 0 1 5 37 100 100 100 100 100 100 100 100 100 78 98 99 80 5
99 99 24 54 94 98 94 100 100 100 100 7 0 0 0 0 0 0 0 0 1 0 4 5 57 100 100 100 100 100 100 100 100 100 100 100 100 6
100 84 100 100 100 96 100 100 100 100 100 69 0 0 0 0 0 0 0 0 4 5 3 0 24 52 46 46 100 100 100 100 100 100 100 97 64 40
100 100 100 100 100 100 100 100 100 100 100 5 0 0 0 0 0 0 0 0 0 0 4 5 5 5 61 91 57 52 89 100 100 93 56 10 5 5
100 100 100 100 100 100 100 100 100 100 93 0 5 5 0 5 0 0 3 0 0 0 0 0 5 5 5 29 5 13 89 94 98 66 69 27 96 100
100 100 100 100 100 100 100 100 100 99 39 5 5 5 5 5 11 1 3 3 0 0 0 0 1 5 6 64 57 72 53 63 39 13 100 92 100 100
100 100 100 100 100 100 100 100 100 100 100 100 96 68 58 62 17 44 24 9 5 5 5 3 0 0 3 51 100 100 81 57 5 35 100 70 91 100
100 100 100 100 100 100 100 100 100 100 100 100 100 100 100 100 100 100 100 100 100 100 20 96 20 3 2 5 6 8 11 56 88 100 100 80 28 55
100 98 4 21 98 36 80 74 32 100 100 99 100 98 99 100 100 100 100 100 100 100 100 100 100 65 53 6 6 7 5 5 5 30 100 100 95 100

GFSNE_prec_cloud_282.txt.gz
Cloud_Cover
95 98 100 95 69 100 100 100 95 6 18 26 18 5 2 33 18 5 5 13 9 6 56 58 20 6 5 52 100 90 96 70 100 100 100 100 100 100
1 0 0 31 88 88 68 56 8 2 2 0 4 4 4 4 5 4 3 5 5 18 36 93 52 94 87 100 99 100 100 99 99 100 100 100 100 100
28 12 4 0 0 0 0 0 4 27 5 4 0 0 2 0 0 3 3 5 5 2 0 0 0 5 22 64 36 28 69 100 100 100 76 89 100 100
4 0 0 0 0 0 0 0 4 5 12 6 5 5 4 0 0 0 5 4 5 2 1 0 3 0 26 100 100 100 94 68 18 39 91 100 97 46
100 100 100 87 58 96 96 94 91 7 4 4 4 12 79 54 12 0 5 5 5 59 38 83 58 29 23 13 26 99 100 100 100 100 99 100 85 100
65 66 96 40 20 92 18 91 100 100 100 74 38 5 11 19 5 68 71 32 5 2 4 25 75 97 47 100 89 100 100 100 100 100 100 100 100 100
83 35 100 100 99 100 100 100 99 100 100 100 92 38 4 7 2 5 4 0 0 0 0 0 1 57 96 90 99 100 100 100 100 100 100 100 100 100
61 89 100 100 100 86 6 73 99 100 100 94 100 99 100 45 9 3 0 0 0 0 0 0 0 0 3 23 100 100 100 100 100 100 100 100 100 99
62 39 10 99 74 63 98 97 100 88 100 93 54 98 45 64 12 5 16 0 0 0 0 0 5 8 0 11 100 100 100 100 100 99 100 44 68 97
100 16 57 49 84 74 42 85 36 67 67 21 86 75 69 32 98 9 5 6 0 2 0 0 0 13 8 0 100 53 100 100 97 30 5 26 16 33
26 100 95 89 86 88 12 79 34 66 75 65 94 73 53 92 74 41 5 9 0 0 0 0 0 9 2 1 5 90 30 64 18 6 96 100 100 100
82 100 99 65 100 83 8 67 84 18 100 100 99 87 59 45 75 64 91 5 0 0 0 0 2 92 40 97 99 100 97 100 100 100 100 100 100 100
94 93 100 96 86 38 34 11 64 100 100 84 100 95 83 77 82 6 16 12 33 72 0 0 0 0 79 90 53 100 69 98 100 100 100 100 100 100
100 100 99 68 66 100 92 90 100 100 100 100 97 100 100 100 100 100 13 53 75 95 80 0 0 0 0 5 4 70 83 99 100 100 100 100 100 100
99 100 100 100 100 100 100 100 100 100 100 96 100 100 100 100 100 100 46 28 5 0 0 0 0 0 0 0 5 5 29 100 100 100 100 100 100 100
100 100 100 100 100 100 100 100 100 100 76 100 100 100 100 100 97 51 5 5 5 0 0 0 0 0 0 0 1 10 99 75 100 100 100 100 100 100
100 100 100 100 100 100 100 100 100 100 100 100 100 100 100 100 77 6 38 5 4 4 1 0 0 0 0 3 2 0 5 87 97 98 100 100 100 100
100 100 100 100 100 100 100 100 100 100 100 100 100 100 100 100 72 16 5 10 5 5 5 4 0 0 0 1 0 7 15 10 98 100 100 100 100 100
100 100 100 100 100 100 100 100 100 100 100 100 100 99 99 39 79 77 31 50 82 30 5 5 1 0 0 4 0 4 7 97 82 77 29 78 98 98
100 100 100 100 100 100 100 100 100 100 100 100 100 99 100 64 46 6 5 5 6 5 5 0 2 5 4 32 94 60 6 5 5 5 48 74 50 55
100 100 100 100 100 100 100 100 100 100 78 100 65 100 100 100 100 89 97 95 13 16 6 5 30 14 5 4 12 63 12 44 63 62 11 75 93 66
100 100 100 100 100 38 42 76 93 93 100 96 97 53 96 100 100 100 100 100 100 100 100 100 90 100 96 68 48 31 6 2 0 5 5 54 100 100
49 39 89 32 22 4 0 0 0 0 20 4 52 54 93 99 100 100 100 100 100 100 100 100 100 100 100 100 100 100 100 74 5 1 16 49 5 74

GFSNE_prec_cloud_285.txt.gz
Cloud_Cover
98 90 80 54 30 79 82 65 7 5 5 5 5 5 15 56 18 61 20 6 9 12 50 91 91 93 26 66 85 100 100 100 100 100 100 100 100 100
0 0 4 2 2 1 0 0 0 0 0 0 1 6 33 20 9 74 2 2 3 1 5 5 5 7 5 5 7 41 61 98 79 88 97 83 100 100
5 5 4 4 2 1 4 4 5 14 32 71 84 98 76 100 5 4 5 5 4 5 1 0 1 5 5 4 6 71 7 5 8 53 94 100 100 100
30 98 14 19 5 13 20 36 96 97 100 100 100 100 100 100 82 8 10 4 6 17 62 6 46 13 57 35 18 51 100 100 100 100 60 8 64 100
13 13 92 89 68 98 92 100 77 28 100 78 98 99 54 21 82 94 86 13 15 12 3 1 22 25 41 15 11 97 91 100 100 100 66 25 14 9
24 80 27 39 67 100 100 72 96 60 97 19 98 96 94 80 51 97 52 6 100 67 5 41 36 49 88 99 92 100 100 100 100 100 100 100 100 100
7 5 8 82 69 87 99 43 18 98 19 70 37 26 22 100 44 89 98 84 6 5 5 15 1 0 9 60 85 100 100 100 100 100 100 100 100 98
39 43 80 37 82 27 42 20 5 46 100 5 17 41 93 80 96 23 23 21 33 40 27 5 22 0 0 0 83 100 100 100 100 100 100 100 100 100
30 22 56 62 16 8 9 69 39 73 24 7 13 19 20 28 81 28 41 27 16 6 5 5 1 0 4 8 81 98 100 100 100 100 92 59 34 100
9 69 100 82 45 81 5 56 40 91 64 7 24 5 5 12 29 10 34 6 28 23 26 6 16 5 6 10 60 100 100 81 93 53 3 4 5 22
5 5 6 17 88 7 9 40 37 62 84 31 6 5 11 14 42 11 79 32 80 100 100 73 11 4 0 0 8 23 72 15 53 100 100 21 100 100
10 39 6 24 15 93 5 8 10 29 100 100 68 92 96 94 99 32 41 97 38 54 100 38 5 0 0 1 0 7 16 27 0 12 58 5 6 53
99 100 100 100 100 100 79 18 100 87 90 90 100 100 100 100 100 100 100 100 98 100 100 99 91 6 0 0 0 2 23 16 18 8 32 6 98 100
100 100 100 100 100 100 100 97 72 100 72 96 100 100 100 100 100 100 100 100 100 100 99 77 65 4 0 0 0 0 0 0 28 55 5 6 92 100
100 100 100 100 100 100 100 97 100 100 100 100 100 100 100 100 100 100 100 100 100 100 100 100 82 8 0 0 0 0 0 0 0 3 9 14 100 100
100 100 100 100 100 100 100 100 100 100 100 100 100 100 98 100 100 100 100 100 100 100 100 100 100 20 1 2 5 0 0 0 0 0 4 51 8 91
100 100 100 100 100 100 100 100 100 100 100 100 100 100 100 100 100 100 100 100 100 100 100 100 84 10 5 9 24 5 5 0 1 5 0 2 68 53
100 100 100 100 100 100 100 100 100 100 100 100 100 100 100 100 100 100 100 100 100 99 100 95 9 5 5 5 16 62 9 3 0 4 5 5 5 49
100 100 100 100 100 100 100 100 100 100 100 100 100 100 100 100 100 100 100 88 68 35 6 5 5 33 27 5 3 6 2 0 0 0 0 5 5 5
100 100 100 100 100 100 100 100 100 100 100 100 100 96 99 94 100 100 100 65 100 10 5 5 5 5 5 5 51 32 21 0 0 0 2 5 7 5
100 100 100 100 100 100 100 100 100 100 71 77 98 92 72 99 77 99 100 100 100 96 92 86 97 20 46 44 7 5 12 2 0 0 0 3 26 99
100 100 100 100 100 100 99 100 100 85 23 5 0 1 3 62 36 95 100 100 100 100 100 100 100 96 100 100 97 100 100 98 24 5 3 3 5 9
73 54 7 41 47 50 8 5 2 5 12 0 0 0 0 0 0 3 80 98 100 98 100 100 100 100 100 100 100 100 100 100 100 100 88 100 100 8

GFSNE_prec_cloud_288.txt.gz
Cloud_Cover
6 5 73 100 86 90 42 0 0 5 4 0 0 3 1 94 24 29 99 5 5 5 24 52 85 98 98 23 56 95 99 100 100 100 100 100 100 100
2 3 8 2 2 0 5 4 4 4 0 1 1 10 22 74 73 17 89 100 15 1 3 4 5 5 34 48 50 14 97 100 100 100 100 100 100 100
0 0 0 10 5 1 3 1 1 4 3 0 12 100 46 54 26 46 30 61 95 86 3 0 0 5 5 15 55 94 100 100 52 54 95 100 100 100
0 16 5 4 2 0 98 85 5 5 14 12 98 100 97 68 9 19 100 100 100 100 97 12 2 2 4 62 87 83 100 99 92 8 60 16 93 100
5 5 12 6 86 36 97 99 100 96 98 15 10 84 96 24 96 84 99 100 100 30 97 100 83 6 17 1 24 42 44 100 89 100 38 2 4 21
12 5 11 26 5 19 42 31 100 70 100 100 96 93 82 69 32 75 79 98 100 97 37 95 100 93 100 93 100 100 100 100 100 100 100 100 100 99
99 82 92 76 61 34 28 91 21 10 12 97 54 99 69 28 72 28 13 17 94 79 80 99 92 80 100 74 36 23 92 100 100 100 100 100 100 100
100 93 100 100 76 100 99 70 100 36 97 42 16 60 100 82 5 6 21 6 19 37 25 88 20 5 15 59 50 3 97 100 100 100 100 100 100 100
100 98 97 80 100 89 100 100 100 99 72 93 96 12 46 12 17 39 43 35 22 8 20 42 5 5 25 19 15 45 100 100 100 100 97 99 48 100
100 99 100 67 71 41 66 78 100 83 76 93 97 45 13 32 41 90 100 29 5 5 5 5 3 6 53 40 12 9 100 100 100 65 10 0 0 70
84 100 100 50 100 93 100 95 100 81 52 49 27 22 50 14 5 65 100 31 7 80 6 2 4 5 6 18 26 26 99 100 59 0 0 77 69 94
100 99 100 100 100 68 98 62 11 26 83 100 98 99 92 30 13 5 6 13 5 7 100 5 5 7 5 23 96 51 6 5 30 1 0 28 95 3
100 100 100 100 100 100 100 100 100 100 100 100 100 98 94 100 97 6 22 100 61 97 91 35 5 38 100 55 91 24 10 13 62 5 29 25 0 0
100 100 100 100 100 100 100 100 100 100 100 100 100 100 100 100 100 100 100 100 100 80 82 5 61 97 96 100 92 100 59 5 8 20 78 2 18 0
100 100 100 100 100 100 100 100 100 100 100 100 100 100 100 100 100 100 100 100 100 97 6 43 15 100 100 100 100 100 49 24 8 3 9 2 4 10
100 100 100 100 100 100 100 100 100 100 100 100 100 100 100 100 100 100 100 100 100 100 100 100 100 100 100 100 100 64 23 23 5 1 0 4 90 99
100 100 100 100 100 100 100 100 100 100 100 100 100 100 100 100 100 100 100 100 100 100 100 100 100 100 100 100 100 80 26 8 5 0 0 1 0 0
100 100 100 100 100 100 100 100 100 100 100 100 100 100 100 100 100 100 100 100 100 100 100 100 100 100 100 98 29 94 12 5 4 3 0 0 4 3
100 100 100 100 100 100 100 100 100 100 100 100 100 100 100 100 100 100 100 100 100 100 100 100 99 98 100 100 75 90 9 10 5 7 5 7 4 3
100 100 100 100 100 100 100 100 100 100 100 100 100 100 100 100 100 100 100 100 100 100 100 98 100 100 100 100 100 100 100 37 44 80 62 62 37 12
100 100 100 100 100 100 100 100 100 100 100 100 100 100 100 100 100 100 100 100 96 100 79 46 100 75 99 100 100 94 100 100 98 90 40 72 95 100
100 100 100 100 100 100 100 100 100 100 100 100 100 100 100 100 62 8 5 10 8 10 32 100 100 94 100 100 100 100 100 100 100 100 100 78 55 93
100 100 100 100 100 100 100 100 100 100 99 82 11 19 36 23 18 7 5 5 5 4 0 0 13 92 100 100 100 92 100 100 100 100 100 100 85 27

GFSNE_prec_cloud_291.txt.gz
Cloud_Cover
29 5 0 1 2 5 42 64 7 31 22 0 6 93 0 80 90 24 24 100 16 6 4 4 5 5 5 5 58 100 99 100 100 100 100 100 100 100
2 4 5 4 2 0 0 0 0 0 0 0 1 48 0 0 22 94 46 23 55 100 100 55 1 0 2 3 6 48 28 41 63 53 98 100 100 100
3 5 5 1 0 0 0 0 0 0 0 0 0 26 5 44 48 30 80 21 24 40 2 3 60 94 20 1 0 0 4 5 9 36 5 52 82 100
5 5 4 5 5 5 0 0 3 0 0 0 0 5 83 61 66 83 99 73 74 26 5 5 4 5 5 6 5 0 1 5 1 5 5 8 8 33
3 8 8 5 5 5 5 4 5 1 3 4 32 100 22 100 99 100 57 100 78 99 74 6 5 5 5 5 10 12 41 48 62 18 3 13 14 32
5 11 12 5 68 64 64 46 26 99 60 44 37 62 26 33 64 94 62 88 89 98 100 98 97 65 96 32 67 100 100 100 100 100 100 100 100 84
10 6 19 100 90 52 85 100 100 80 99 100 95 58 100 100 47 70 42 51 88 42 100 9 96 49 18 84 94 97 100 100 100 100 100 100 100 100
6 16 5 100 100 100 92 100 100 100 95 96 100 100 52 100 100 100 49 99 88 46 100 94 66 44 88 12 100 100 91 95 100 100 100 98 98 100
93 55 14 7 62 95 77 52 97 48 79 99 100 100 100 100 100 91 12 12 47 46 33 100 81 100 84 24 19 5 82 38 100 100 100 100 100 100
90 71 88 85 73 100 100 100 100 98 77 56 92 94 97 100 100 97 24 32 5 83 10 15 95 7 73 17 33 5 5 18 100 100 95 44 19 97
97 100 99 76 86 79 96 100 92 100 94 100 76 97 66 76 53 98 84 34 36 10 53 5 10 34 90 32 76 6 23 94 96 13 4 2 5 87
100 100 100 100 100 100 100 74 99 71 100 100 100 98 10 76 99 61 50 7 5 18 100 40 6 24 38 70 33 41 59 92 94 0 5 5 26 27
100 100 100 100 100 100 100 100 100 100 100 100 100 100 100 100 81 95 100 100 100 87 100 58 12 32 95 16 95 69 26 50 5 5 26 5 25 9
100 100 100 100 100 100 100 100 100 100 100 100 100 100 100 100 59 88 95 100 97 87 100 99 28 78 85 100 58 9 44 32 5 11 12 8 79 49
100 100 100 100 100 100 100 100 100 100 100 100 100 100 100 100 100 100 100 100 100 100 84 100 99 74 96 87 92 20 7 5 42 69 97 59 82 7
100 100 100 100 100 100 100 100 100 100 100 100 100 100 100 100 100 100 100 100 100 100 100 100 100 94 80 98 72 100 98 100 100 100 98 73 85 17
100 100 100 100 100 100 100 100 100 100 100 100 100 100 100 100 100 100 100 100 100 100 100 100 100 100 100 100 100 100 100 100 100 100 100 97 20 42
100 100 100 100 100 100 100 100 100 100 100 100 100 100 100 100 100 100 100 100 100 100 100 100 100 100 100 100 100 100 100 100 100 100 76 63 39 52
100 100 100 100 100 100 100 100 100 100 100 100 100 100 100 100 100 100 100 100 100 100 100 100 100 100 100 100 100 100 100 100 100 100 46 96 57 5
100 100 100 100 100 100 100 100 100 100 100 100 100 100 100 100 100 100 100 100 100 100 100 100 100 100 100 100 100 100 100 100 100 100 100 24 81 100
100 100 100 100 100 100 100 100 100 100 100 100 100 100 100 100 100 100 100 100 100 100 100 100 98 100 100 100 93 100 100 100 100 100 79 41 50 5
100 100 100 100 100 100 100 100 100 100 100 100 100 100 100 100 100 100 100 100 100 79 92 100 100 92 100 81 42 65 45 51 100 100 100 100 100 100
7 24 97 100 100 100 94 97 98 99 100 100 100 100 100 100 100 100 99 68 56 100 100 100 98 49 5 4 0 6 32 34 87 99 100 100 84 100